| time (UTC) | temp F | wind direction | speed MPH | gust MPH | rain 1hr in | rain 24hr in | rain mn in | humidity % | barometer mb |
| 20260509203703 | 85 | 137 | 7.0 | 13.0 | 0.00 | 0.01 | 0.01 | 32 | 1011.3 |
| 20260509203204 | 85 | 109 | 3.0 | 12.0 | 0.00 | 0.01 | 0.01 | 31 | 1011.3 |
| 20260509200704 | 85 | 116 | 3.0 | 10.0 | 0.00 | 0.01 | 0.01 | 32 | 1011.6 |
| 20260509193704 | 84 | 126 | 5.0 | 9.0 | 0.00 | 0.01 | 0.01 | 30 | 1012.1 |
| 20260509193203 | 84 | 141 | 2.0 | 12.0 | 0.00 | 0.01 | 0.01 | 34 | 1012.2 |
| 20260509190704 | 84 | 168 | 3.0 | 8.0 | 0.00 | 0.01 | 0.01 | 34 | 1012.2 |
| 20260509190203 | 84 | 156 | 4.0 | 12.0 | 0.00 | 0.01 | 0.01 | 35 | 1012.2 |
| 20260509183704 | 82 | 145 | 1.0 | 8.0 | 0.00 | 0.01 | 0.01 | 37 | 1012.5 |
| 20260509183203 | 83 | 160 | 2.0 | 10.0 | 0.00 | 0.01 | 0.01 | 38 | 1012.7 |
| 20260509180203 | 82 | 161 | 5.0 | 12.0 | 0.00 | 0.01 | 0.01 | 42 | 1013.3 |
| 20260509173703 | 81 | 155 | 3.0 | 12.0 | 0.00 | 0.01 | 0.01 | 46 | 1013.3 |
| 20260509173203 | 81 | 136 | 5.0 | 12.0 | 0.00 | 0.01 | 0.01 | 42 | 1013.4 |
| 20260509170704 | 79 | 170 | 2.0 | 8.0 | 0.00 | 0.01 | 0.01 | 41 | 1013.6 |
| 20260509170203 | 80 | 134 | 4.0 | 10.0 | 0.00 | 0.01 | 0.01 | 36 | 1013.6 |
| 20260509163703 | 81 | 197 | 3.0 | 9.0 | 0.00 | 0.01 | 0.01 | 45 | 1014.0 |
| 20260509163204 | 81 | 125 | 4.0 | 8.0 | 0.00 | 0.01 | 0.01 | 43 | 1014.0 |
| 20260509160703 | 79 | 143 | 4.0 | 6.0 | 0.00 | 0.01 | 0.01 | 51 | 1014.0 |
| 20260509160204 | 78 | 160 | 1.0 | 6.0 | 0.00 | 0.01 | 0.01 | 54 | 1013.9 |
| 20260509153704 | 76 | 143 | 3.0 | 7.0 | 0.00 | 0.01 | 0.01 | 55 | 1013.5 |
| 20260509153204 | 76 | 170 | 2.0 | 6.0 | 0.00 | 0.01 | 0.01 | 55 | 1013.5 |
| 20260509150703 | 74 | 156 | 3.0 | 5.0 | 0.00 | 0.01 | 0.01 | 66 | 1013.4 |
| 20260509150204 | 74 | 150 | 2.0 | 3.0 | 0.00 | 0.01 | 0.01 | 66 | 1013.5 |
| 20260509143703 | 70 | 110 | 0.0 | 2.0 | 0.00 | 0.01 | 0.01 | 75 | 1013.5 |
| 20260509140704 | 65 | 111 | 1.0 | 2.0 | 0.00 | 0.01 | 0.01 | 89 | 1013.5 |
| 20260509140203 | 64 | 109 | 1.0 | 2.0 | 0.00 | 0.01 | 0.01 | 90 | 1013.4 |
| 20260509133203 | 61 | 108 | 1.0 | 2.0 | 0.00 | 0.01 | 0.01 | 92 | 1013.4 |
| 20260509130704 | 58 | 108 | 1.0 | 2.0 | 0.00 | 0.01 | 0.01 | 92 | 1013.4 |
| 20260509130204 | 58 | 108 | 0.0 | 3.0 | 0.00 | 0.01 | 0.01 | 92 | 1013.3 |
| 20260509123704 | 54 | 111 | 1.0 | 2.0 | 0.00 | 0.01 | 0.01 | 92 | 1012.9 |
| 20260509120704 | 52 | 113 | 0.0 | 0.0 | 0.01 | 0.01 | 0.01 | 91 | 1012.6 |
| 20260509120204 | 52 | 113 | 0.0 | 0.0 | 0.01 | 0.01 | 0.01 | 90 | 1012.6 |
| 20260509113703 | 52 | 113 | 0.0 | 0.0 | 0.01 | 0.01 | 0.01 | 90 | 1012.5 |
| 20260509113203 | 52 | 113 | 0.0 | 1.0 | 0.01 | 0.01 | 0.01 | 90 | 1012.3 |
| 20260509110704 | 53 | 113 | 0.0 | 0.0 | 0.00 | 0.00 | 0.00 | 90 | 1012.2 |
| 20260509110203 | 53 | 113 | 0.0 | 0.0 | 0.00 | 0.00 | 0.00 | 90 | 1012.1 |
| 20260509103703 | 53 | 114 | 0.0 | 0.0 | 0.00 | 0.00 | 0.00 | 90 | 1012.3 |
| 20260509100703 | 55 | 116 | 0.0 | 0.0 | 0.00 | 0.00 | 0.00 | 90 | 1012.4 |
| 20260509093703 | 56 | 118 | 0.0 | 0.0 | 0.00 | 0.00 | 0.00 | 90 | 1012.6 |
| 20260509093204 | 56 | 118 | 0.0 | 1.0 | 0.00 | 0.00 | 0.00 | 90 | 1012.6 |
| 20260509090703 | 57 | 113 | 1.0 | 2.0 | 0.00 | 0.00 | 0.00 | 90 | 1012.7 |
| 20260509090203 | 57 | 113 | 1.0 | 2.0 | 0.00 | 0.00 | 0.00 | 90 | 1012.7 |
| 20260509083704 | 56 | 115 | 0.0 | 0.0 | 0.00 | 0.00 | 0.00 | 90 | 1012.9 |
| 20260509083203 | 56 | 116 | 0.0 | 0.0 | 0.00 | 0.00 | 0.00 | 90 | 1012.9 |
| 20260509080703 | 56 | 118 | 0.0 | 0.0 | 0.00 | 0.00 | 0.00 | 89 | 1013.1 |
| 20260509073703 | 57 | 118 | 0.0 | 1.0 | 0.00 | 0.00 | 0.00 | 89 | 1013.2 |
| 20260509063703 | 58 | 119 | 1.0 | 2.0 | 0.00 | 0.00 | 0.00 | 88 | 1013.1 |
| 20260509063203 | 58 | 118 | 1.0 | 3.0 | 0.00 | 0.00 | 0.00 | 88 | 1013.0 |
| 20260509060704 | 59 | 118 | 0.0 | 0.0 | 0.00 | 0.00 | 0.00 | 87 | 1013.2 |
| 20260509060203 | 59 | 118 | 0.0 | 0.0 | 0.00 | 0.00 | 0.00 | 87 | 1013.2 |
| 20260509053703 | 60 | 119 | 0.0 | 0.0 | 0.00 | 0.00 | 0.00 | 87 | 1013.2 |
| 20260509053203 | 60 | 119 | 0.0 | 3.0 | 0.00 | 0.00 | 0.00 | 87 | 1013.2 |
| 20260509050704 | 60 | 119 | 0.0 | 2.0 | 0.00 | 0.00 | 0.00 | 86 | 1013.2 |
| 20260509050203 | 61 | 108 | 0.0 | 1.0 | 0.00 | 0.00 | 0.00 | 86 | 1013.3 |
| 20260509043704 | 61 | 89 | 0.0 | 1.0 | 0.00 | 0.00 | 0.00 | 85 | 1013.4 |
| 20260509043204 | 61 | 95 | 0.0 | 1.0 | 0.00 | 0.00 | 0.00 | 85 | 1013.5 |
| 20260509040705 | 62 | 110 | 0.0 | 0.0 | 0.00 | 0.00 | 0.00 | 84 | 1013.3 |
| 20260509040204 | 62 | 35 | 0.0 | 2.0 | 0.00 | 0.00 | 0.00 | 84 | 1013.3 |
| 20260509033704 | 63 | 93 | 1.0 | 2.0 | 0.00 | 0.00 | 0.00 | 83 | 1013.0 |
| 20260509033204 | 63 | 71 | 1.0 | 3.0 | 0.00 | 0.00 | 0.00 | 82 | 1012.9 |
| 20260509030703 | 65 | 127 | 2.0 | 3.0 | 0.00 | 0.00 | 0.00 | 80 | 1012.4 |
| 20260509023704 | 67 | 104 | 0.0 | 3.0 | 0.00 | 0.00 | 0.00 | 76 | 1011.7 |
| 20260509023204 | 67 | 111 | 1.0 | 3.0 | 0.00 | 0.00 | 0.00 | 75 | 1011.6 |
| 20260509020703 | 68 | 105 | 0.0 | 2.0 | 0.00 | 0.00 | 0.00 | 73 | 1010.8 |
| 20260509020204 | 69 | 105 | 1.0 | 3.0 | 0.00 | 0.00 | 0.00 | 73 | 1010.9 |
| 20260509013703 | 70 | 137 | 1.0 | 3.0 | 0.00 | 0.00 | 0.00 | 70 | 1010.5 |
| 20260509013204 | 71 | 141 | 1.0 | 5.0 | 0.00 | 0.00 | 0.00 | 70 | 1010.4 |
| 20260509010704 | 73 | 98 | 3.0 | 6.0 | 0.00 | 0.00 | 0.00 | 69 | 1010.0 |
| 20260509003204 | 75 | 104 | 3.0 | 10.0 | 0.00 | 0.00 | 0.00 | 63 | 1009.4 |
| 20260509000204 | 75 | 148 | 2.0 | 5.0 | 0.00 | 0.00 | 0.00 | 58 | 1008.8 |
| 20260508233703 | 74 | 186 | 0.0 | 2.0 | 0.00 | 0.00 | 0.00 | 58 | 1008.9 |
| 20260508233204 | 74 | 185 | 2.0 | 8.0 | 0.00 | 0.00 | 0.00 | 58 | 1008.8 |
| 20260508230704 | 76 | 201 | 4.0 | 12.0 | 0.00 | 0.00 | 0.00 | 59 | 1007.9 |
| 20260508230203 | 76 | 254 | 1.0 | 15.0 | 0.00 | 0.00 | 0.00 | 60 | 1007.8 |
| 20260508223704 | 82 | 186 | 3.0 | 8.0 | 0.00 | 0.00 | 0.00 | 50 | 1007.4 |
| 20260508223204 | 82 | 190 | 3.0 | 13.0 | 0.00 | 0.00 | 0.00 | 50 | 1006.8 |
| 20260508220703 | 84 | 227 | 3.0 | 7.0 | 0.00 | 0.00 | 0.00 | 48 | 1007.4 |
| 20260508220204 | 85 | 192 | 2.0 | 10.0 | 0.00 | 0.00 | 0.00 | 47 | 1007.3 |
| 20260508213703 | 86 | 195 | 3.0 | 9.0 | 0.00 | 0.00 | 0.00 | 47 | 1007.9 |
| 20260508213204 | 85 | 191 | 3.0 | 10.0 | 0.00 | 0.00 | 0.00 | 48 | 1007.9 |
| 20260508210704 | 85 | 211 | 3.0 | 8.0 | 0.00 | 0.00 | 0.00 | 48 | 1008.6 |
| 20260508210204 | 85 | 227 | 3.0 | 14.0 | 0.00 | 0.00 | 0.00 | 46 | 1008.6 |